Stephenville, TX

11:55 AM CDT on June 22, 2017 (GMT -0500)
Clark Municipal

Weather History for KSEP - October, 2014

Change the Weather History Date:

Friday, October 10, 2014

  Actual Average Record
Temperature  
Mean Temperature 76 °F -  
Max Temperature 89 °F 78 °F 94 °F (1926)
Min Temperature 63 °F 52 °F 37 °F (1990)
Cooling Degree Days 11    
Growing Degree Days 26 (Base 50)    
Moisture  
Dew Point 63 °F    
Average Humidity 63    
Maximum Humidity 91    
Minimum Humidity 35    
Precipitation  
Precipitation 0.74 in - - ()
Sea Level Pressure  
Sea Level Pressure 29.93 in    
Wind  
Wind Speed 9 mph (South)    
Max Wind Speed 29 mph    
Max Gust Speed 40 mph    
Visibility 10 miles    
Events      
Averages and records for this station are not official NWS values.
T = Trace of Precipitation, MM = Missing Value Source: NWS Daily Summary

Daily Weather History Graph

Daily Weather History Graph

Search for Another Location

Airport or City:

Trip Planner

Search our weather history database for the weather conditions in past years. The results will help you decide how hot, cold, wet, or windy it might be!

Date:

Astronomy

Oct. 10, 2014 Rise Set
Actual Time 7:32 AM CDT 7:06 PM CDT
Civil Twilight 7:08 AM CDT 7:30 PM CDT
Nautical Twilight 6:39 AM CDT 7:58 PM CDT
Astronomical Twilight 6:11 AM CDT 8:27 PM CDT
Moon 8:56 PM CDT (10/10) 9:47 AM CDT (10/10)
Length of Visible Light 12h 22m
Length of Day
11h 33m
Waning Gibbous, 93% of the Moon is Illuminated
Oct 10
Waning Gibbous
Oct 15
Last Quarter
Oct 23
New
Oct 30
First Quarter
Nov 6
Full

Hourly Weather History & Observations

Time (CDT) Temp. Heat Index Dew Point Humidity Pressure Visibility Wind Dir Wind Speed Gust Speed Precip Events Conditions
12:15 AM 77.0 °F - 66.6 °F 70% 29.92 in 10.0 mi SSE 10.4 mph 16.1 mph N/A   Clear
12:35 AM 77.0 °F - 66.6 °F 70% 29.91 in 10.0 mi SSE 10.4 mph - N/A   Clear
12:55 AM 76.5 °F - 66.6 °F 71% 29.91 in 10.0 mi SSE 10.4 mph 17.3 mph N/A   Clear
1:15 AM 76.1 °F - 66.2 °F 71% 29.91 in 10.0 mi South 11.5 mph 17.3 mph N/A   Clear
1:35 AM 75.7 °F - 66.2 °F 72% 29.91 in 10.0 mi South 10.4 mph 18.4 mph N/A   Clear
1:55 AM 75.4 °F - 66.2 °F 73% 29.91 in 10.0 mi South 10.4 mph 17.3 mph N/A   Clear
2:15 AM 74.7 °F - 65.8 °F 74% 29.91 in 10.0 mi South 9.2 mph - N/A   Clear
2:35 AM 74.3 °F - 65.7 °F 74% 29.92 in 10.0 mi South 8.1 mph - N/A   Clear
2:55 AM 73.8 °F - 65.3 °F 75% 29.92 in 10.0 mi South 8.1 mph - N/A   Clear
3:15 AM 73.4 °F - 64.9 °F 75% 29.92 in 10.0 mi South 6.9 mph - N/A   Clear
3:35 AM 72.7 °F - 64.8 °F 76% 29.92 in 10.0 mi South 5.8 mph - N/A   Clear
3:55 AM 72.1 °F - 64.8 °F 78% 29.92 in 10.0 mi SSE 6.9 mph - N/A   Clear
4:15 AM 71.8 °F - 64.8 °F 78% 29.92 in 10.0 mi South 8.1 mph - N/A   Clear
4:35 AM 71.8 °F - 65.3 °F 80% 29.93 in 10.0 mi South 5.8 mph - N/A   Scattered Clouds
4:55 AM 72.0 °F - 65.3 °F 79% 29.93 in 10.0 mi South 8.1 mph - N/A   Overcast
5:15 AM 72.5 °F - 65.7 °F 79% 29.94 in 10.0 mi South 6.9 mph - N/A   Overcast
5:35 AM 72.9 °F - 66.2 °F 80% 29.94 in 10.0 mi South 5.8 mph - N/A   Overcast
5:55 AM 72.7 °F - 66.2 °F 80% 29.93 in 10.0 mi SSE 8.1 mph - N/A   Mostly Cloudy
6:15 AM 72.5 °F - 66.2 °F 81% 29.93 in 10.0 mi SSE 6.9 mph - N/A   Scattered Clouds
6:35 AM 72.1 °F - 66.4 °F 82% 29.94 in 10.0 mi South 5.8 mph - N/A   Clear
6:55 AM 72.0 °F - 66.4 °F 83% 29.94 in 10.0 mi South 6.9 mph - N/A   Clear
7:15 AM 71.8 °F - 66.4 °F 83% 29.93 in 10.0 mi South 8.1 mph - N/A   Clear
7:35 AM 71.6 °F - 66.4 °F 84% 29.93 in 10.0 mi South 6.9 mph - N/A   Clear
7:55 AM 71.6 °F - 66.6 °F 84% 29.94 in 10.0 mi SSE 9.2 mph - N/A   Clear
8:15 AM 72.0 °F - 67.1 °F 85% 29.94 in 10.0 mi South 9.2 mph - N/A   Clear
8:35 AM 72.7 °F - 67.3 °F 83% 29.95 in 10.0 mi SSE 11.5 mph - N/A   Clear
8:55 AM 73.8 °F - 67.6 °F 81% 29.95 in 10.0 mi South 12.7 mph - N/A   Clear
9:15 AM 74.7 °F - 67.8 °F 79% 29.96 in 10.0 mi South 10.4 mph - N/A   Scattered Clouds
9:35 AM 75.7 °F - 68.0 °F 77% 29.97 in 10.0 mi South 11.5 mph 18.4 mph N/A   Scattered Clouds
9:55 AM 77.0 °F - 67.6 °F 73% 29.97 in 10.0 mi South 6.9 mph - N/A   Mostly Cloudy
10:15 AM 78.1 °F - 66.7 °F 68% 29.98 in 10.0 mi SSW 11.5 mph 17.3 mph N/A   Mostly Cloudy
10:35 AM 80.1 °F 82.2 °F 66.4 °F 63% 29.99 in 10.0 mi SW 9.2 mph - N/A   Overcast
10:55 AM 81.3 °F 83.2 °F 65.5 °F 58% 29.99 in 10.0 mi SW 12.7 mph - N/A   Overcast
11:15 AM 81.7 °F 83.5 °F 65.3 °F 57% 29.99 in 10.0 mi SSW 8.1 mph - N/A   Mostly Cloudy
11:35 AM 81.3 °F 82.7 °F 63.7 °F 55% 29.99 in 10.0 mi SW 8.1 mph - N/A   Scattered Clouds
11:55 AM 81.7 °F 83.0 °F 63.7 °F 54% 29.99 in 10.0 mi SW 6.9 mph - N/A   Scattered Clouds
12:15 PM 84.2 °F 85.0 °F 62.8 °F 48% 29.98 in 10.0 mi SSW 9.2 mph - N/A   Scattered Clouds
12:35 PM 83.1 °F 83.9 °F 62.1 °F 49% 29.97 in 10.0 mi SW 10.4 mph - N/A   Mostly Cloudy
12:55 PM 82.6 °F 83.6 °F 62.8 °F 51% 29.97 in 10.0 mi WSW 5.8 mph - N/A   Mostly Cloudy
1:15 PM 85.1 °F 85.7 °F 62.2 °F 46% 29.96 in 10.0 mi South 6.9 mph - N/A   Mostly Cloudy
1:35 PM 86.4 °F 86.5 °F 61.5 °F 43% 29.95 in 10.0 mi SSW 11.5 mph 16.1 mph N/A   Scattered Clouds
1:55 PM 88.2 °F 87.8 °F 60.4 °F 39% 29.94 in 10.0 mi SSW 8.1 mph 16.1 mph N/A   Scattered Clouds
2:15 PM 88.0 °F 87.6 °F 60.1 °F 39% 29.93 in 10.0 mi South 10.4 mph - N/A   Scattered Clouds
2:35 PM 87.8 °F 87.4 °F 60.3 °F 39% 29.92 in 10.0 mi South 8.1 mph 16.1 mph N/A   Scattered Clouds
2:55 PM 88.0 °F 87.6 °F 59.9 °F 39% 29.91 in 10.0 mi South 12.7 mph 16.1 mph N/A   Scattered Clouds
3:15 PM 88.9 °F 88.0 °F 58.8 °F 36% 29.91 in 10.0 mi South 3.5 mph - N/A   Scattered Clouds
3:35 PM 89.4 °F 88.7 °F 59.5 °F 36% 29.90 in 10.0 mi SW 6.9 mph - N/A   Scattered Clouds
3:55 PM 88.5 °F 87.8 °F 58.8 °F 37% 29.90 in 10.0 mi South 8.1 mph - N/A   Scattered Clouds
4:15 PM 88.3 °F 87.6 °F 59.0 °F 37% 29.89 in 10.0 mi South 8.1 mph - N/A   Scattered Clouds
4:35 PM 88.0 °F 87.4 °F 59.5 °F 38% 29.89 in 10.0 mi SSW 4.6 mph - N/A   Scattered Clouds
4:55 PM 89.8 °F 88.9 °F 59.0 °F 35% 29.88 in 10.0 mi SSW 8.1 mph - N/A   Scattered Clouds
5:15 PM 89.2 °F 88.4 °F 59.0 °F 36% 29.88 in 10.0 mi South 5.8 mph - N/A   Scattered Clouds
5:35 PM 88.5 °F 87.8 °F 59.0 °F 37% 29.88 in 10.0 mi SSW 4.6 mph - N/A   Scattered Clouds
5:55 PM 88.7 °F 87.8 °F 58.8 °F 36% 29.88 in 10.0 mi South 4.6 mph - N/A   Scattered Clouds
6:15 PM 88.0 °F 87.4 °F 59.2 °F 38% 29.87 in 10.0 mi Calm Calm - N/A   Mostly Cloudy
6:35 PM 87.3 °F 86.7 °F 59.2 °F 39% 29.88 in 10.0 mi South 3.5 mph - N/A   Scattered Clouds
6:55 PM 86.0 °F 85.7 °F 59.7 °F 41% 29.88 in 10.0 mi Calm Calm - N/A   Mostly Cloudy
7:15 PM 85.1 °F 84.8 °F 59.4 °F 42% 29.88 in 10.0 mi SE 4.6 mph - N/A   Mostly Cloudy
7:35 PM 84.2 °F 84.0 °F 59.5 °F 43% 29.88 in 10.0 mi SE 4.6 mph - N/A   Mostly Cloudy
7:55 PM 83.5 °F 83.6 °F 59.9 °F 45% 29.88 in 10.0 mi SE 4.6 mph - N/A   Scattered Clouds
8:15 PM 82.9 °F 83.2 °F 60.1 °F 46% 29.88 in 10.0 mi SE 4.6 mph - N/A   Scattered Clouds
8:35 PM 83.3 °F 83.4 °F 60.1 °F 45% 29.90 in 10.0 mi SSE 3.5 mph - N/A   Scattered Clouds
8:55 PM 83.3 °F 83.5 °F 60.4 °F 46% 29.91 in 10.0 mi Calm Calm - N/A   Mostly Cloudy
9:15 PM 76.8 °F - 62.2 °F 61% 29.95 in 7.0 mi NW 28.8 mph 40.3 mph N/A   Overcast
9:35 PM 70.9 °F - 62.6 °F 75% 29.97 in 10.0 mi NW 23.0 mph 34.5 mph N/A   Overcast
9:55 PM 65.5 °F - 61.0 °F 85% 29.99 in 2.5 mi NNW 20.7 mph 36.8 mph 0.04 in   Overcast
10:15 PM 63.9 °F - 60.6 °F 89% 30.04 in 0.5 mi North 17.3 mph 21.9 mph 0.48 in   Overcast
10:35 PM 63.0 °F - 60.1 °F 90% 29.96 in 5.0 mi NNE 12.7 mph 16.1 mph 0.69 in   Overcast
10:55 PM 63.9 °F - 60.8 °F 90% 29.99 in 10.0 mi North 3.5 mph - 0.70 in   Mostly Cloudy
11:15 PM 63.7 °F - 60.8 °F 90% 29.99 in 10.0 mi NE 6.9 mph - N/A   Overcast
11:35 PM 63.7 °F - 60.8 °F 90% 30.02 in 10.0 mi NW 6.9 mph - N/A   Overcast
11:55 PM 63.1 °F - 60.4 °F 91% 30.04 in 10.0 mi NW 9.2 mph - N/A   Overcast